Location: *
(51.1248°S, 108.4023°W)
Time: 10:56:28
(UTC+00:00)

N. Korean satellite - Pass Details

Date: 02 October 2021
Orbit: 450 x 495 km, 97.3° (Epoch: 19 October)

Event Time Altitude Azimuth Distance (km) Brightness Sun altitude
Rises 10:05:47 0° 65° (ENE) 2,594 10.6 -22.7°
Reaches altitude 10° 10:08:47 10° 92° (E) 1,714 10.0 -22.4°
Maximum altitude 10:10:33 13° 121° (ESE) 1,526 10.1 -22.1°
Drops below altitude 10° 10:12:19 10° 149° (SSE) 1,714 10.3 -21.9°
Sets 10:15:19 0° 177° (S) 2,596 10.8 -21.6°
